Weather History for Brooksville, FL

Change the Weather History Date:

Monday, December 3, 2012

  Actual Average Record
Temperature  
Mean Temperature 70 °F -  
Max Temperature 79 °F 71 °F 82 °F (1998)
Min Temperature 55 °F 46 °F 26 °F (2008)
Cooling Degree Days 4    
Growing Degree Days 20 (Base 50)    
Moisture  
Dew Point 60 °F    
Average Humidity 77    
Maximum Humidity 97    
Minimum Humidity 47    
Precipitation  
Precipitation 0.00 in - - ()
Sea Level Pressure  
Sea Level Pressure 30.26 in    
Wind  
Wind Speed 4 mph (ENE)    
Max Wind Speed 8 mph    
Max Gust Speed -    
Visibility 10 miles    
Events      
Averages and records for this station are not official NWS values.
T = Trace of Precipitation, MM = Missing Value Source: NWS Daily Summary

Daily Weather History Graph

Daily Weather History Graph

Search for Another Location

Airport:

Trip Planner

Search our weather history database for the weather conditions in past years. The results will help you decide how hot, cold, wet, or windy it might be!

Date:

Astronomy

Dec. 03, 2012 Rise Set
Actual Time 7:06 AM EST 5:32 PM EST
Civil Twilight 6:41 AM EST 5:58 PM EST
Nautical Twilight 6:11 AM EST 6:27 PM EST
Astronomical Twilight 5:43 AM EST 6:56 PM EST
Moon 10:05 PM EST (12/3) 10:40 AM EST (12/3)
Length of Visible Light 11h 17m
Length of Day
10h 26m
Waning Gibbous, 78% of the Moon is Illuminated
Dec 3
Waning Gibbous
Dec 6
Last Quarter
Dec 13
New
Dec 20
First Quarter
Dec 28
Full

Hourly Weather History & Observations

Time (EST) Temp. Dew Point Humidity Pressure Visibility Wind Dir Wind Speed Gust Speed Precip Events Conditions
12:53 AM 61.0 °F 59.0 °F 93% 30.25 in 10.0 mi NE 4.6 mph - N/A   Clear
1:53 AM 61.0 °F 60.1 °F 97% 30.25 in 10.0 mi NE 3.5 mph - N/A   Clear
2:53 AM 62.1 °F 61.0 °F 96% 30.25 in 10.0 mi NE 5.8 mph - N/A   Overcast
3:53 AM 62.1 °F 61.0 °F 96% 30.24 in 10.0 mi Calm Calm - N/A   Overcast
4:53 AM 61.0 °F 60.1 °F 97% 30.24 in 10.0 mi Calm Calm - N/A   Overcast
5:53 AM 62.1 °F 61.0 °F 96% 30.25 in 10.0 mi Calm Calm - N/A   Overcast
6:53 AM 63.0 °F 61.0 °F 93% 30.26 in 10.0 mi East 3.5 mph - N/A   Overcast
7:53 AM 64.9 °F 63.0 °F 93% 30.28 in 10.0 mi Calm Calm - N/A   Overcast
8:53 AM 69.1 °F 64.0 °F 84% 30.30 in 10.0 mi ENE 4.6 mph - N/A   Overcast
9:53 AM 72.0 °F 63.0 °F 73% 30.31 in 10.0 mi NE 5.8 mph - N/A   Overcast
10:53 AM 75.9 °F 63.0 °F 64% 30.31 in 10.0 mi Variable 3.5 mph - N/A   Overcast
11:53 AM 77.0 °F 62.1 °F 60% 30.28 in 10.0 mi East 4.6 mph - N/A   Overcast
12:53 PM 78.1 °F 61.0 °F 56% 30.25 in 10.0 mi ENE 8.1 mph - N/A   Overcast
1:53 PM 79.0 °F 60.1 °F 52% 30.22 in 10.0 mi East 3.5 mph - N/A   Mostly Cloudy
2:53 PM 79.0 °F 57.9 °F 48% 30.21 in 10.0 mi East 8.1 mph - N/A   Mostly Cloudy
3:53 PM 79.0 °F 57.0 °F 47% 30.21 in 10.0 mi East 8.1 mph - N/A   Scattered Clouds
4:53 PM 77.0 °F 55.9 °F 48% 30.22 in 10.0 mi ENE 4.6 mph - N/A   Clear
5:53 PM 71.1 °F 57.0 °F 61% 30.23 in 10.0 mi NE 3.5 mph - N/A   Clear
6:53 PM 66.0 °F 57.0 °F 73% 30.24 in 10.0 mi ENE 5.8 mph - N/A   Clear
7:53 PM 66.9 °F 57.0 °F 70% 30.25 in 10.0 mi East 6.9 mph - N/A   Clear
8:53 PM 66.0 °F 57.9 °F 75% 30.26 in 10.0 mi East 4.6 mph - N/A   Clear
9:53 PM 64.0 °F 57.9 °F 80% 30.27 in 10.0 mi East 3.5 mph - N/A   Clear
10:53 PM 60.1 °F 57.0 °F 90% 30.28 in 10.0 mi Calm Calm - N/A   Clear
11:53 PM 55.0 °F 54.0 °F 96% 30.27 in 10.0 mi Calm Calm - N/A   Clear